Howell, MI

11:23 PM EDT on July 26, 2017 (GMT -0400)
Livingston County

Weather History for KOZW - October, 2011

Change the Weather History Date:

Thursday, October 20, 2011

  Actual Average Record
Temperature  
Mean Temperature 44 °F -  
Max Temperature 46 °F 57 °F 78 °F (2003)
Min Temperature 42 °F 39 °F 33 °F (2002)
Degree Days  
Heating Degree Days 21    
Moisture  
Dew Point 43 °F    
Average Humidity 93    
Maximum Humidity 100    
Minimum Humidity 87    
Precipitation  
Precipitation 0.00 in - - ()
Sea Level Pressure  
Sea Level Pressure 29.24 in    
Wind  
Wind Speed 12 mph (NNW)    
Max Wind Speed 20 mph    
Max Gust Speed 28 mph    
Visibility 5 miles    
Events Rain    
Averages and records for this station are not official NWS values.
T = Trace of Precipitation, MM = Missing Value Source: NWS Daily Summary

Daily Weather History Graph

Daily Weather History Graph

Search for Another Location

Airport or City:

Trip Planner

Search our weather history database for the weather conditions in past years. The results will help you decide how hot, cold, wet, or windy it might be!

Date:

Astronomy

Oct. 20, 2011 Rise Set
Actual Time 7:54 AM EDT 6:46 PM EDT
Civil Twilight 7:26 AM EDT 7:14 PM EDT
Nautical Twilight 6:53 AM EDT 7:47 PM EDT
Astronomical Twilight 6:20 AM EDT 8:20 PM EDT
Moon 12:29 AM EDT (10/20) 3:03 PM EDT (10/20)
Length of Visible Light 11h 48m
Length of Day
10h 51m
Last Quarter, 44% of the Moon is Illuminated
Oct 20
Last Quarter
Oct 26
New
Nov 2
First Quarter
Nov 10
Full
Nov 18
Last Quarter

Hourly Weather History & Observations

Time (EDT) Temp. Windchill Dew Point Humidity Pressure Visibility Wind Dir Wind Speed Gust Speed Precip Events Conditions
12:15 AM 44.6 °F 38.8 °F 44.6 °F 100% 29.23 in 5.0 mi North 11.5 mph 23.0 mph N/A Rain Light Rain
12:34 AM 46.4 °F 39.5 °F 44.6 °F 93% 29.21 in 5.0 mi North 17.3 mph 24.2 mph N/A Rain Light Rain
12:55 AM 46.4 °F 41.1 °F 44.6 °F 93% 29.21 in 4.0 mi NNE 11.5 mph 21.9 mph N/A Rain Light Rain
1:15 AM 46.4 °F 41.5 °F 44.6 °F 93% 29.19 in 5.0 mi NNE 10.4 mph 21.9 mph N/A   Drizzle
1:35 AM 46.4 °F 40.7 °F 44.6 °F 93% 29.19 in 5.0 mi NNE 12.7 mph 23.0 mph N/A Rain Light Rain
1:55 AM 46.4 °F 39.8 °F 44.6 °F 93% 29.17 in 7.0 mi North 16.1 mph 24.2 mph N/A Rain Rain
2:35 AM 46.4 °F 41.5 °F 44.6 °F 93% 29.15 in 10.0 mi North 10.4 mph 26.5 mph N/A Rain Light Rain
2:55 AM 46.4 °F 40.7 °F 44.6 °F 93% 29.15 in 7.0 mi NNE 12.7 mph 19.6 mph N/A Rain Rain
3:15 AM 46.4 °F 41.5 °F 44.6 °F 93% 29.15 in 4.0 mi NNE 10.4 mph 25.3 mph N/A Rain Rain
3:35 AM 46.4 °F 42.4 °F 44.6 °F 93% 29.15 in 7.0 mi NNE 8.1 mph 19.6 mph N/A Rain Heavy Rain
3:55 AM 46.4 °F 41.5 °F 44.6 °F 93% 29.14 in 5.0 mi North 10.4 mph 18.4 mph N/A   Drizzle
4:15 AM 46.4 °F 41.1 °F 44.6 °F 93% 29.14 in 5.0 mi North 11.5 mph 19.6 mph N/A   Drizzle
4:35 AM 46.4 °F 42.9 °F 44.6 °F 93% 29.14 in 5.0 mi North 6.9 mph - N/A Rain Light Rain
4:54 AM 46.4 °F 41.5 °F 44.6 °F 93% 29.13 in 4.0 mi North 10.4 mph 18.4 mph N/A Rain Light Rain
5:15 AM 46.4 °F 42.9 °F 44.6 °F 93% 29.13 in 5.0 mi North 6.9 mph 17.3 mph N/A   Light Drizzle
5:35 AM 46.4 °F 41.9 °F 44.6 °F 93% 29.13 in 4.0 mi North 9.2 mph 20.7 mph N/A   Drizzle
5:54 AM 46.4 °F 41.9 °F 44.6 °F 93% 29.13 in 4.0 mi NNE 9.2 mph 18.4 mph N/A   Drizzle
6:15 AM 46.4 °F 41.9 °F 44.6 °F 93% 29.14 in 4.0 mi NNE 9.2 mph 20.7 mph N/A Rain Rain
6:35 AM 46.4 °F 42.9 °F 44.6 °F 93% 29.14 in 3.0 mi North 6.9 mph 16.1 mph N/A   Drizzle
7:15 AM 46.4 °F 41.5 °F 44.6 °F 93% 29.14 in 4.0 mi North 10.4 mph 16.1 mph N/A   Drizzle
7:35 AM 46.4 °F 41.9 °F 44.6 °F 93% 29.14 in 4.0 mi North 9.2 mph 16.1 mph N/A   Light Drizzle
7:55 AM 46.4 °F 42.4 °F 44.6 °F 93% 29.14 in 3.0 mi North 8.1 mph 16.1 mph N/A   Overcast
8:15 AM 46.4 °F 42.4 °F 44.6 °F 93% 29.16 in 3.0 mi North 8.1 mph 17.3 mph N/A   Light Drizzle
8:34 AM 46.4 °F 41.9 °F 44.6 °F 93% 29.15 in 2.5 mi North 9.2 mph - N/A   Drizzle
8:55 AM 46.4 °F 41.9 °F 44.6 °F 93% 29.16 in 2.5 mi North 9.2 mph - N/A   Overcast
9:15 AM 46.4 °F 42.4 °F 44.6 °F 93% 29.16 in 2.5 mi North 8.1 mph 16.1 mph N/A Rain Light Rain
9:34 AM 46.4 °F 42.4 °F 44.6 °F 93% 29.17 in 1.8 mi North 8.1 mph - N/A   Drizzle
9:55 AM 46.4 °F 41.9 °F 44.6 °F 93% 29.17 in 1.5 mi NNW 9.2 mph 17.3 mph N/A   Drizzle
10:15 AM 46.4 °F 42.4 °F 44.6 °F 93% 29.18 in 2.0 mi North 8.1 mph 18.4 mph N/A Rain Light Rain
10:34 AM 46.4 °F 40.7 °F 44.6 °F 93% 29.19 in 2.0 mi NNW 12.7 mph 19.6 mph N/A Rain Light Rain
10:55 AM 46.4 °F 40.1 °F 44.6 °F 93% 29.20 in 2.0 mi NNW 15.0 mph 23.0 mph N/A   Drizzle
11:15 AM 44.6 °F 38.4 °F 44.6 °F 100% 29.21 in 1.8 mi NW 12.7 mph 21.9 mph N/A Rain Light Rain
11:35 AM 44.6 °F 37.8 °F 44.6 °F 100% 29.22 in 1.8 mi NW 15.0 mph 21.9 mph N/A Rain Light Rain
11:55 AM 44.6 °F 38.1 °F 42.8 °F 93% 29.23 in 1.8 mi NW 13.8 mph 21.9 mph N/A Rain Light Rain
12:14 PM 44.6 °F 37.4 °F 42.8 °F 93% 29.23 in 2.0 mi NW 16.1 mph 21.9 mph N/A Rain Rain
12:55 PM 44.6 °F 37.8 °F 42.8 °F 93% 29.25 in 2.0 mi NNW 15.0 mph 21.9 mph N/A Rain Light Rain
1:14 PM 44.6 °F 37.2 °F 42.8 °F 93% 29.26 in 1.8 mi NW 17.3 mph 27.6 mph N/A Rain Light Rain
1:35 PM 44.6 °F 37.2 °F 42.8 °F 93% 29.27 in 2.5 mi NNW 17.3 mph 26.5 mph N/A Rain Light Rain
1:55 PM 44.6 °F 39.2 °F 42.8 °F 93% 29.28 in 7.0 mi NW 10.4 mph 20.7 mph N/A Rain Light Rain
2:14 PM 44.6 °F 37.8 °F 42.8 °F 93% 29.28 in 7.0 mi NW 15.0 mph 20.7 mph N/A Rain Light Rain
2:35 PM 42.8 °F 35.4 °F 41.0 °F 93% 29.30 in 5.0 mi NW 15.0 mph 24.2 mph N/A Rain Light Rain
2:55 PM 42.8 °F 34.3 °F 41.0 °F 93% 29.31 in 7.0 mi WNW 19.6 mph 25.3 mph N/A Rain Light Rain
3:14 PM 44.6 °F 37.4 °F 41.0 °F 87% 29.32 in 7.0 mi WNW 16.1 mph 23.0 mph N/A Rain Rain
3:35 PM 42.8 °F 35.1 °F 41.0 °F 93% 29.33 in 7.0 mi WNW 16.1 mph 24.2 mph N/A Rain Light Rain
3:54 PM 42.8 °F 35.8 °F 41.0 °F 93% 29.35 in 5.0 mi WNW 13.8 mph - N/A   Drizzle
4:15 PM 42.8 °F 35.4 °F 41.0 °F 93% 29.36 in 5.0 mi WNW 15.0 mph 21.9 mph N/A Rain Light Rain
4:35 PM 42.8 °F 35.1 °F 41.0 °F 93% 29.37 in 7.0 mi WNW 16.1 mph 21.9 mph N/A Rain Light Rain
4:54 PM 42.8 °F 36.2 °F 41.0 °F 93% 29.39 in 10.0 mi NNW 12.7 mph 24.2 mph N/A   Light Drizzle
5:15 PM 42.8 °F 34.8 °F 41.0 °F 93% 29.41 in 7.0 mi NW 17.3 mph 23.0 mph N/A   Drizzle
5:35 PM 42.8 °F 36.2 °F 41.0 °F 93% 29.43 in 5.0 mi WNW 12.7 mph 17.3 mph N/A   Light Drizzle
5:55 PM 42.8 °F 34.8 °F 41.0 °F 93% 29.44 in 10.0 mi WNW 17.3 mph 21.9 mph N/A   Overcast
6:34 PM 42.8 °F 35.1 °F 39.2 °F 87% 29.47 in 10.0 mi WNW 16.1 mph 21.9 mph N/A   Overcast
6:55 PM 42.8 °F 35.8 °F 41.0 °F 93% 29.48 in 10.0 mi WNW 13.8 mph 17.3 mph N/A   Overcast
7:15 PM 42.8 °F 36.6 °F 41.0 °F 93% 29.50 in 5.0 mi West 11.5 mph 17.3 mph N/A   Overcast
7:34 PM 42.8 °F 35.8 °F 41.0 °F 93% 29.51 in 10.0 mi WNW 13.8 mph - N/A   Overcast
7:55 PM 42.8 °F 36.2 °F 41.0 °F 93% 29.53 in 10.0 mi WNW 12.7 mph 17.3 mph N/A Rain Light Rain
8:15 PM 42.8 °F 35.8 °F 41.0 °F 93% 29.54 in 7.0 mi WNW 13.8 mph - N/A   Overcast
8:34 PM 42.8 °F 35.8 °F 41.0 °F 93% 29.55 in 7.0 mi WNW 13.8 mph 19.6 mph N/A   Overcast
9:15 PM 42.8 °F 36.6 °F 41.0 °F 93% 29.58 in 10.0 mi WNW 11.5 mph 20.7 mph N/A   Overcast
9:34 PM 42.8 °F 35.4 °F 41.0 °F 93% 29.59 in 10.0 mi WNW 15.0 mph - N/A   Overcast
10:35 PM 42.8 °F 35.4 °F 41.0 °F 93% 29.63 in 10.0 mi WNW 15.0 mph 19.6 mph N/A   Overcast
10:55 PM 42.8 °F 36.2 °F 41.0 °F 93% 29.64 in 7.0 mi WNW 12.7 mph 17.3 mph N/A   Overcast
11:15 PM 42.8 °F 35.1 °F 41.0 °F 93% 29.65 in 10.0 mi West 16.1 mph - N/A   Overcast
11:35 PM 42.8 °F 36.6 °F 41.0 °F 93% 29.66 in 10.0 mi West 11.5 mph 20.7 mph N/A   Light Drizzle
11:55 PM 42.8 °F 35.1 °F 41.0 °F 93% 29.67 in 10.0 mi West 16.1 mph 21.9 mph N/A   Light Drizzle